Time,TemperatureF,DewpointF,PressureIn,WindDirection,WindDirectionDegrees,WindSpeedMPH,WindSpeedGustMPH,Humidity,HourlyPrecipIn,Conditions,Clouds,dailyrainin,SoftwareType,DateUTC
2013-11-11 00:01:00,31.2,30.0,30.32,NE,40,0.0,0.0,95,0.00,,,0.00,weatherlink.com 1.10,2013-11-11 06:01:00,
2013-11-11 00:16:00,31.0,30.0,30.31,NE,40,0.0,0.0,95,0.00,,,0.00,weatherlink.com 1.10,2013-11-11 06:16:00,
2013-11-11 00:31:00,30.7,30.0,30.31,NE,40,0.0,0.0,95,0.00,,,0.00,weatherlink.com 1.10,2013-11-11 06:31:00,
2013-11-11 00:46:00,30.5,29.0,30.31,NE,40,0.0,0.0,95,0.00,,,0.00,weatherlink.com 1.10,2013-11-11 06:46:00,
2013-11-11 01:01:00,30.3,29.0,30.31,NE,40,0.0,0.0,95,0.00,,,0.00,weatherlink.com 1.10,2013-11-11 07:01:00,
2013-11-11 01:16:00,30.3,29.0,30.31,NE,40,0.0,0.0,95,0.00,,,0.00,weatherlink.com 1.10,2013-11-11 07:16:00,
2013-11-11 01:31:00,30.1,29.0,30.30,NE,40,0.0,0.0,95,0.00,,,0.00,weatherlink.com 1.10,2013-11-11 07:31:00,
2013-11-11 01:46:00,29.9,29.0,30.30,NE,40,0.0,0.0,95,0.00,,,0.00,weatherlink.com 1.10,2013-11-11 07:46:00,
2013-11-11 02:01:00,29.8,29.0,30.30,NE,40,0.0,0.0,96,0.00,,,0.00,weatherlink.com 1.10,2013-11-11 08:01:00,
2013-11-11 02:16:00,29.7,29.0,30.30,NE,40,0.0,0.0,96,0.00,,,0.00,weatherlink.com 1.10,2013-11-11 08:16:00,
2013-11-11 02:32:00,29.8,29.0,30.30,NE,40,0.0,0.0,96,0.00,,,0.00,weatherlink.com 1.10,2013-11-11 08:32:00,
2013-11-11 02:47:00,29.8,29.0,30.30,NE,40,0.0,0.0,96,0.00,,,0.00,weatherlink.com 1.10,2013-11-11 08:47:00,
2013-11-11 03:02:00,29.7,29.0,30.30,NE,40,0.0,0.0,96,0.00,,,0.00,weatherlink.com 1.10,2013-11-11 09:02:00,
2013-11-11 03:17:00,29.7,29.0,30.30,NE,40,0.0,0.0,96,0.00,,,0.00,weatherlink.com 1.10,2013-11-11 09:17:00,
2013-11-11 03:32:00,29.7,29.0,30.30,NE,40,0.0,0.0,96,0.00,,,0.00,weatherlink.com 1.10,2013-11-11 09:32:00,
2013-11-11 03:47:00,29.8,29.0,30.29,NE,40,0.0,0.0,96,0.00,,,0.00,weatherlink.com 1.10,2013-11-11 09:47:00,
2013-11-11 04:02:00,29.9,29.0,30.29,NE,40,0.0,0.0,96,0.00,,,0.00,weatherlink.com 1.10,2013-11-11 10:02:00,
2013-11-11 04:17:00,30.1,29.0,30.29,NE,40,0.0,0.0,96,0.00,,,0.00,weatherlink.com 1.10,2013-11-11 10:17:00,
2013-11-11 04:32:00,30.0,29.0,30.30,NE,40,0.0,0.0,96,0.00,,,0.00,weatherlink.com 1.10,2013-11-11 10:32:00,
2013-11-11 04:47:00,29.8,29.0,30.30,NE,40,0.0,0.0,96,0.00,,,0.00,weatherlink.com 1.10,2013-11-11 10:47:00,
2013-11-11 05:02:00,29.7,29.0,30.30,NE,40,0.0,0.0,96,0.00,,,0.00,weatherlink.com 1.10,2013-11-11 11:02:00,
2013-11-11 05:17:00,29.8,29.0,30.30,NE,40,0.0,0.0,97,0.00,,,0.00,weatherlink.com 1.10,2013-11-11 11:17:00,
2013-11-11 05:32:00,29.6,29.0,30.29,NE,40,0.0,0.0,96,0.00,,,0.00,weatherlink.com 1.10,2013-11-11 11:32:00,
2013-11-11 05:47:00,29.3,28.0,30.30,NE,40,0.0,0.0,96,0.00,,,0.00,weatherlink.com 1.10,2013-11-11 11:47:00,
2013-11-11 06:02:00,29.3,28.0,30.30,NE,40,0.0,0.0,96,0.00,,,0.00,weatherlink.com 1.10,2013-11-11 12:02:00,
2013-11-11 06:17:00,29.1,28.0,30.30,NE,40,0.0,0.0,96,0.00,,,0.00,weatherlink.com 1.10,2013-11-11 12:17:00,
2013-11-11 06:32:00,29.0,28.0,30.30,NE,40,0.0,0.0,96,0.00,,,0.00,weatherlink.com 1.10,2013-11-11 12:32:00,
2013-11-11 06:47:00,29.0,28.0,30.30,NE,40,0.0,0.0,96,0.00,,,0.00,weatherlink.com 1.10,2013-11-11 12:47:00,
2013-11-11 07:02:00,29.1,28.0,30.31,NE,40,0.0,0.0,97,0.00,,,0.00,weatherlink.com 1.10,2013-11-11 13:02:00,
2013-11-11 07:17:00,29.6,29.0,30.31,NE,40,0.0,0.0,97,0.00,,,0.00,weatherlink.com 1.10,2013-11-11 13:17:00,
2013-11-11 07:32:00,30.7,30.0,30.31,NE,40,0.0,0.0,97,0.00,,,0.00,weatherlink.com 1.10,2013-11-11 13:32:00,
2013-11-11 07:47:00,32.8,32.0,30.31,NE,40,0.0,0.0,98,0.00,,,0.00,weatherlink.com 1.10,2013-11-11 13:47:00,
2013-11-11 08:02:00,35.7,35.0,30.31,NE,40,0.0,0.0,98,0.00,,,0.00,weatherlink.com 1.10,2013-11-11 14:02:00,
2013-11-11 08:17:00,38.7,38.0,30.31,NE,40,0.0,0.0,98,0.00,,,0.00,weatherlink.com 1.10,2013-11-11 14:17:00,
2013-11-11 08:32:00,41.7,41.0,30.30,NE,40,0.0,0.0,98,0.00,,,0.00,weatherlink.com 1.10,2013-11-11 14:32:00,
2013-11-11 08:47:00,44.8,41.0,30.30,NNW,346,1.0,2.0,85,0.00,,,0.00,weatherlink.com 1.10,2013-11-11 14:47:00,
2013-11-11 09:02:00,48.8,38.0,30.30,South,188,1.0,4.0,67,0.00,,,0.00,weatherlink.com 1.10,2013-11-11 15:02:00,
2013-11-11 09:17:00,51.7,36.0,30.29,SSE,166,0.0,8.0,56,0.00,,,0.00,weatherlink.com 1.10,2013-11-11 15:17:00,
2013-11-11 09:32:00,53.9,35.0,30.29,SSE,151,3.0,9.0,50,0.00,,,0.00,weatherlink.com 1.10,2013-11-11 15:32:00,
2013-11-11 09:47:00,55.3,37.0,30.29,SSW,203,3.0,6.0,50,0.00,,,0.00,weatherlink.com 1.10,2013-11-11 15:47:00,
2013-11-11 10:02:00,56.2,35.0,30.28,SSE,155,0.0,5.0,46,0.00,,,0.00,weatherlink.com 1.10,2013-11-11 16:02:00,
2013-11-11 10:18:00,57.5,36.0,30.27,SSE,166,3.0,6.0,45,0.00,,,0.00,weatherlink.com 1.10,2013-11-11 16:18:00,
2013-11-11 10:33:00,58.8,36.0,30.27,South,176,5.0,5.0,42,0.00,,,0.00,weatherlink.com 1.10,2013-11-11 16:33:00,
2013-11-11 10:48:00,59.8,35.0,30.26,SSW,211,1.0,6.0,39,0.00,,,0.00,weatherlink.com 1.10,2013-11-11 16:48:00,
2013-11-11 11:03:00,61.4,35.0,30.26,SE,130,0.0,4.0,38,0.00,,,0.00,weatherlink.com 1.10,2013-11-11 17:03:00,
2013-11-11 11:18:00,62.0,35.0,30.25,SW,217,4.0,6.0,36,0.00,,,0.00,weatherlink.com 1.10,2013-11-11 17:18:00,
2013-11-11 11:33:00,62.3,36.0,30.24,SSW,196,0.0,9.0,37,0.00,,,0.00,weatherlink.com 1.10,2013-11-11 17:33:00,
2013-11-11 11:48:00,63.4,34.0,30.23,South,191,3.0,8.0,34,0.00,,,0.00,weatherlink.com 1.10,2013-11-11 17:48:00,
2013-11-11 12:03:00,63.8,36.0,30.22,South,183,3.0,5.0,36,0.00,,,0.00,weatherlink.com 1.10,2013-11-11 18:03:00,
2013-11-11 12:18:00,64.6,35.0,30.21,SSW,201,0.0,7.0,33,0.00,,,0.00,weatherlink.com 1.10,2013-11-11 18:18:00,
2013-11-11 12:33:00,64.4,36.0,30.21,WSW,240,4.0,5.0,35,0.00,,,0.00,weatherlink.com 1.10,2013-11-11 18:33:00,
2013-11-11 12:48:00,64.5,36.0,30.20,West,267,3.0,10.0,35,0.00,,,0.00,weatherlink.com 1.10,2013-11-11 18:48:00,
2013-11-11 13:03:00,64.5,37.0,30.20,West,262,0.0,6.0,36,0.00,,,0.00,weatherlink.com 1.10,2013-11-11 19:03:00,
2013-11-11 13:18:00,64.3,36.0,30.19,WSW,255,4.0,7.0,35,0.00,,,0.00,weatherlink.com 1.10,2013-11-11 19:18:00,
2013-11-11 13:33:00,65.0,38.0,30.19,West,270,4.0,9.0,37,0.00,,,0.00,weatherlink.com 1.10,2013-11-11 19:33:00,
2013-11-11 13:48:00,65.1,37.0,30.18,NNW,334,0.0,6.0,36,0.00,,,0.00,weatherlink.com 1.10,2013-11-11 19:48:00,
2013-11-11 14:03:00,64.6,38.0,30.18,WNW,293,3.0,9.0,38,0.00,,,0.00,weatherlink.com 1.10,2013-11-11 20:03:00,
2013-11-11 14:18:00,64.5,37.0,30.18,NW,312,2.0,7.0,36,0.00,,,0.00,weatherlink.com 1.10,2013-11-11 20:18:00,
2013-11-11 14:33:00,64.1,36.0,30.17,WSW,244,3.0,8.0,36,0.00,,,0.00,weatherlink.com 1.10,2013-11-11 20:33:00,
2013-11-11 14:48:00,63.5,36.0,30.17,WSW,237,2.0,10.0,36,0.00,,,0.00,weatherlink.com 1.10,2013-11-11 20:48:00,
2013-11-11 15:03:00,63.1,37.0,30.17,SW,219,2.0,7.0,38,0.00,,,0.00,weatherlink.com 1.10,2013-11-11 21:03:00,
2013-11-11 15:18:00,62.9,37.0,30.16,WSW,242,2.0,8.0,38,0.00,,,0.00,weatherlink.com 1.10,2013-11-11 21:18:00,
2013-11-11 15:33:00,63.0,36.0,30.16,SW,215,1.0,7.0,37,0.00,,,0.00,weatherlink.com 1.10,2013-11-11 21:33:00,
2013-11-11 15:48:00,62.5,36.0,30.16,SSW,203,5.0,6.0,37,0.00,,,0.00,weatherlink.com 1.10,2013-11-11 21:48:00,
2013-11-11 16:03:00,61.9,36.0,30.16,WSW,241,1.0,4.0,38,0.00,,,0.00,weatherlink.com 1.10,2013-11-11 22:03:00,
2013-11-11 16:18:00,61.4,36.0,30.16,SW,225,1.0,3.0,39,0.00,,,0.00,weatherlink.com 1.10,2013-11-11 22:18:00,
2013-11-11 16:33:00,60.8,37.0,30.16,SW,224,0.0,1.0,42,0.00,,,0.00,weatherlink.com 1.10,2013-11-11 22:33:00,
2013-11-11 16:48:00,60.0,37.0,30.16,SW,225,0.0,2.0,42,0.00,,,0.00,weatherlink.com 1.10,2013-11-11 22:48:00,
2013-11-11 17:03:00,59.1,41.0,30.16,SW,225,0.0,0.0,51,0.00,,,0.00,weatherlink.com 1.10,2013-11-11 23:03:00,
2013-11-11 17:18:00,58.0,38.0,30.16,SW,225,0.0,0.0,48,0.00,,,0.00,weatherlink.com 1.10,2013-11-11 23:18:00,
2013-11-11 17:33:00,57.3,39.0,30.16,SW,225,0.0,0.0,51,0.00,,,0.00,weatherlink.com 1.10,2013-11-11 23:33:00,
2013-11-11 17:48:00,56.8,39.0,30.17,SW,225,0.0,0.0,51,0.00,,,0.00,weatherlink.com 1.10,2013-11-11 23:48:00,
2013-11-11 18:03:00,56.0,41.0,30.18,SW,225,0.0,1.0,58,0.00,,,0.00,weatherlink.com 1.10,2013-11-12 00:03:00,
2013-11-11 18:18:00,55.4,40.0,30.17,SW,225,0.0,0.0,56,0.00,,,0.00,weatherlink.com 1.10,2013-11-12 00:18:00,
2013-11-11 18:33:00,54.8,44.0,30.18,SW,225,0.0,0.0,68,0.00,,,0.00,weatherlink.com 1.10,2013-11-12 00:33:00,
2013-11-11 18:48:00,54.2,41.0,30.18,SW,225,0.0,0.0,62,0.00,,,0.00,weatherlink.com 1.10,2013-11-12 00:48:00,
2013-11-11 19:03:00,53.8,42.0,30.18,SW,225,0.0,0.0,64,0.00,,,0.00,weatherlink.com 1.10,2013-11-12 01:03:00,
2013-11-11 19:19:00,53.4,42.0,30.17,SW,225,0.0,0.0,65,0.00,,,0.00,weatherlink.com 1.10,2013-11-12 01:19:00,
2013-11-11 19:34:00,53.0,42.0,30.17,SW,225,0.0,0.0,66,0.00,,,0.00,weatherlink.com 1.10,2013-11-12 01:34:00,
2013-11-11 19:49:00,52.6,43.0,30.17,SW,225,0.0,0.0,70,0.00,,,0.00,weatherlink.com 1.10,2013-11-12 01:49:00,
2013-11-11 20:04:00,52.3,42.0,30.17,SW,225,0.0,0.0,68,0.00,,,0.00,weatherlink.com 1.10,2013-11-12 02:04:00,
2013-11-11 20:19:00,52.1,42.0,30.17,SW,225,0.0,0.0,69,0.00,,,0.00,weatherlink.com 1.10,2013-11-12 02:19:00,
2013-11-11 20:34:00,51.9,44.0,30.18,SW,225,0.0,0.0,75,0.00,,,0.00,weatherlink.com 1.10,2013-11-12 02:34:00,
2013-11-11 20:49:00,51.7,43.0,30.18,SW,225,0.0,0.0,73,0.00,,,0.00,weatherlink.com 1.10,2013-11-12 02:49:00,
2013-11-11 21:04:00,51.7,45.0,30.19,SW,225,0.0,0.0,78,0.00,,,0.00,weatherlink.com 1.10,2013-11-12 03:04:00,
2013-11-11 21:19:00,51.7,43.0,30.20,SW,225,0.0,0.0,72,0.00,,,0.00,weatherlink.com 1.10,2013-11-12 03:19:00,
2013-11-11 21:34:00,52.1,43.0,30.20,SW,225,0.0,1.0,72,0.00,,,0.00,weatherlink.com 1.10,2013-11-12 03:34:00,
2013-11-11 21:49:00,53.3,43.0,30.21,WNW,292,1.0,7.0,67,0.00,,,0.00,weatherlink.com 1.10,2013-11-12 03:49:00,
2013-11-11 22:04:00,54.8,44.0,30.22,NW,323,1.0,7.0,66,0.00,,,0.00,weatherlink.com 1.10,2013-11-12 04:04:00,
2013-11-11 22:19:00,55.2,44.0,30.23,North,353,3.0,14.0,67,0.00,,,0.00,weatherlink.com 1.10,2013-11-12 04:19:00,
2013-11-11 22:34:00,54.6,44.0,30.23,NNW,329,3.0,14.0,68,0.00,,,0.00,weatherlink.com 1.10,2013-11-12 04:34:00,
2013-11-11 22:49:00,53.7,45.0,30.25,NW,304,3.0,16.0,72,0.00,,,0.00,weatherlink.com 1.10,2013-11-12 04:49:00,
2013-11-11 23:04:00,51.8,44.0,30.27,WNW,303,9.0,16.0,75,0.00,,,0.00,weatherlink.com 1.10,2013-11-12 05:04:00,
2013-11-11 23:19:00,49.7,43.0,30.27,NNW,340,2.0,13.0,77,0.00,,,0.00,weatherlink.com 1.10,2013-11-12 05:19:00,
2013-11-11 23:34:00,48.5,42.0,30.28,WNW,299,8.0,11.0,79,0.00,,,0.00,weatherlink.com 1.10,2013-11-12 05:34:00,
2013-11-11 23:49:00,47.4,42.0,30.30,WNW,288,2.0,18.0,81,0.00,,,0.00,weatherlink.com 1.10,2013-11-12 05:49:00,